Flag for Slovenia Weather past 2 weeks in Maribor, Slovenia

Now
66 °F

Overcast.


Feels Like: 66 °F
Forecast: 53 / 70 °F
Wind: 2 mph from North

Location: Maribor / Slivnica

Current Time: Aug 27, 2014 at 11:17:28 AM

Latest Report: Aug 27, 2014 at 10:00 AM


Visibility: 9 mi

Pressure: 29.81 "Hg

Humidity: 89%

Dew point: 62 °F

Location of MariborLocation

Historic Weather in Maribor — Graph

°F

Maribor temperature yesterday

Maximum temperature yesterday: 70 °F (at 12:00 PM)
Minimum temperature yesterday: 56 °F (at 1:00 AM)
Average temperature yesterday: 64 °F

Past Weeks' High & Low Weather Summary

 TemperatureHumidityPressure
High77 °F (Aug 18, 5:00 PM)99% (Aug 15, 7:00 AM)30.16 "Hg (Aug 15, 7:00 AM)
Low49 °F (Aug 18, 6:00 AM)41% (Aug 17, 3:00 PM)29.63 "Hg (Aug 13, 8:00 PM)
Average62 °F80%29.96 "Hg
* Reported Aug 12 9:00 AM — Aug 27 9:00 AM, Maribor, Weather by CustomWeather, © 2014

Note: Actual official high and low records may vary slightly from our data, if they occured in-between our weather recording intervals... More about our weather records

Advertising

Maribor weather history for previous 24 hours

 ConditionsComfort  
Time TempWeatherWind HumidityBarometerVisibility
9:00 AM
Aug 27
64 °FOvercast.2 mph94%29.80 "Hg9 mi
8:00 AM63 °FRain. Low clouds.2 mph96%29.79 "Hg3 mi
7:00 AM62 °FOvercast.1 mph95%29.77 "Hg11 mi
6:00 AM62 °FLight rain. Overcast.2 mph95%29.77 "Hg9 mi
5:00 AM62 °FLight rain. Overcast.1 mph95%29.77 "Hg4 mi
4:00 AM63 °FOvercast.2 mph91%29.76 "Hg6 mi
3:00 AM63 °FLight rain. Overcast.1 mph90%29.76 "Hg9 mi
2:00 AM65 °FOvercast.3 mph83%29.76 "Hg12 mi
1:00 AM66 °FPassing clouds.6 mph77%29.75 "Hg12 mi
12:00 AM67 °FMild.3 mph72%29.77 "HgN/A
11:00 PM
Aug 26
67 °FMild.3 mph72%29.77 "HgN/A
10:00 PM67 °FOvercast.8 mph70%29.77 "Hg16 mi
9:00 PM68 °FPassing clouds.3 mph69%29.78 "Hg16 mi
8:00 PM69 °FPassing clouds.5 mph67%29.77 "Hg16 mi
7:00 PM69 °FPartly sunny.3 mph66%29.75 "Hg16 mi
6:00 PM70 °FOvercast.6 mph66%29.75 "Hg16 mi
5:00 PM69 °FOvercast.6 mph69%29.77 "Hg16 mi
4:00 PM69 °FOvercast.6 mph70%29.77 "Hg16 mi
3:00 PM70 °FOvercast.7 mph68%29.78 "Hg16 mi
2:00 PM70 °FOvercast.8 mph68%29.79 "Hg12 mi
1:00 PM69 °FOvercast.7 mph67%29.78 "Hg12 mi
12:00 PM70 °FOvercast.7 mph65%29.78 "Hg12 mi
11:00 AM66 °FOvercast.5 mph73%29.81 "Hg12 mi
Weather by CustomWeather, © 2014

See weather overviewHow to use our weather pages